Location: Keppel Henge
(44.7900°N, 80.9447°W)
Time: 15:42:09
(UTC-05:00)

OTV 5 (USA 277) - Pass Details

Date: 12 October 2017
Orbit: 404 x 417 km, 43.0° (Epoch: 07 September)

Event Time Altitude Azimuth Distance (km) Brightness Sun altitude
Rises 21:14:06 0° 262° (W) 2,353 ? -27.2°
Reaches altitude 10° 21:16:13 10° 259° (W) 1,490 ? -27.6°
Enters shadow 21:17:10 18° 256° (WSW) 1,115 ? -27.8°
